Date String (YYYY-MM-DD hh:mm:ss) UTC,Instrument flags,absolute air pressure of the measurement (hPa),sample flow rate (lpm),inlet stack bypass flow (lpm),air temperature of the measurement (°C),ambient temperature measured by the external sensor (°C),aerosol sample conditioner tube jacket temperature (°C),OPC LED temperature (°C),internal box temperature (°C),relative humidity of the measurement (%),span deviation,mass concentration of particles derived from Lorenz-Mie calculation of OPC scattering (μg/m³),mass concentration of particles derived from Lorenz-Mie calculation of OPC scattering (μg/m³),mass concentration of particles derived from Lorenz-Mie calculation of OPC scattering (μg/m³)
DateTimeUTC,F1_M11,P_M11,Q1_M11,Q2_M11,T1_M11,T2_M11,T3_M11,T4_M11,T5_M11,U1_M11,ZSPAN_M11,X2_M11,X0_M11,X1_M11
2024-06-10 17:00:00,SystemResetWarning,0829.3,5.00,000.00,029.3,027.9,000.0,037.8,031.0,040.1,0000.2,0012.66,0016.77,0011.88
2024-06-10 17:01:00,SystemResetWarning,0829.3,5.00,000.00,029.3,028.2,000.0,037.8,031.1,038.7,0000.5,0012.76,0017.51,0011.95
2024-06-10 17:02:00,SystemResetWarning,0829.3,5.01,000.00,029.4,028.4,000.0,037.8,031.2,038.7,0000.4,0012.85,0017.85,0012.06
2024-06-10 17:03:00,SystemResetWarning,0829.3,5.00,000.00,029.5,028.6,000.0,037.8,031.3,038.2,0000.6,0012.89,0018.46,0012.15
2024-06-10 17:04:00,SystemResetWarning,0829.2,5.00,000.00,029.5,028.8,000.0,037.8,031.4,038.4,0000.8,0012.94,0018.96,0012.22
2024-06-10 17:05:00,SystemResetWarning,0829.2,5.00,000.00,029.6,028.9,000.0,037.8,031.4,038.4,0001.0,0013.02,0018.84,0012.31
2024-06-10 17:06:00,SystemResetWarning,0829.2,5.00,000.00,029.6,029.1,000.0,037.9,031.5,038.4,0001.0,0013.07,0019.09,0012.35
2024-06-10 17:07:00,SystemResetWarning,0829.2,5.00,000.00,029.7,029.2,000.0,037.9,031.6,038.0,0001.0,0013.04,0018.84,0012.31
2024-06-10 17:08:00,SystemResetWarning,0829.2,5.00,000.00,029.8,029.3,000.0,037.9,031.7,038.2,0000.8,0013.05,0018.20,0012.30
2024-06-10 17:09:00,SystemResetWarning,0829.2,5.00,000.00,029.8,029.4,000.0,038.0,031.7,038.7,0000.7,0013.08,0018.47,0012.27
2024-06-10 17:10:00,SystemResetWarning,0829.2,5.00,000.00,029.9,029.5,000.0,038.0,031.8,037.7,0000.6,0013.12,0018.91,0012.31
2024-06-10 17:11:00,SystemResetWarning,0829.2,5.00,000.00,030.0,029.4,000.0,038.1,031.7,037.0,0000.4,0013.22,0019.63,0012.41
2024-06-10 17:12:00,SystemResetWarning,0829.1,4.99,000.00,029.8,027.8,000.0,038.1,031.0,037.4,0000.3,0013.27,0019.54,0012.47
2024-06-10 17:13:00,SystemResetWarning,0829.1,5.00,000.00,029.4,026.3,000.0,038.2,030.2,038.1,0000.1,0013.27,0019.65,0012.47
2024-06-10 17:14:00,SystemResetWarning,0829.1,5.01,000.00,029.2,026.3,000.0,038.1,030.1,039.1,0000.1,0013.28,0019.07,0012.46
2024-06-10 17:15:00,SystemResetWarning,0829.1,5.01,000.00,029.1,026.6,000.0,038.0,030.3,039.2,-000.2,0013.30,0018.73,0012.44
2024-06-10 17:16:00,SystemResetWarning,0829.1,4.99,000.00,029.1,027.1,000.0,037.9,030.6,039.0,-000.7,0013.37,0018.75,0012.46
2024-06-10 17:17:00,SystemResetWarning,0829.1,5.01,000.00,029.2,027.5,000.0,037.8,030.8,039.4,-000.6,0013.40,0018.45,0012.48
2024-06-10 17:18:00,SystemResetWarning,0829.1,4.99,000.00,029.2,027.9,000.0,037.8,030.9,039.2,-000.4,0013.44,0018.58,0012.51
2024-06-10 17:19:00,SystemResetWarning,0829.1,5.00,000.00,029.3,028.2,000.0,037.8,031.1,038.5,-000.4,0013.43,0018.59,0012.53
2024-06-10 17:20:00,SystemResetWarning,0829.1,5.00,000.00,029.4,028.4,000.0,037.8,031.2,038.0,-000.4,0013.45,0018.55,0012.57
2024-06-10 17:21:00,SystemResetWarning,0829.1,5.00,000.00,029.4,028.6,000.0,037.8,031.2,037.7,-000.5,0013.40,0017.96,0012.55
2024-06-10 17:22:00,SystemResetWarning,0829.1,5.01,000.00,029.5,028.8,000.0,037.8,031.3,037.1,-000.2,0013.31,0017.27,0012.46
2024-06-10 17:23:00,SystemResetWarning,0829.1,4.99,000.00,029.6,028.9,000.0,037.8,031.4,037.0,-000.4,0013.20,0016.70,0012.37
2024-06-10 17:24:00,SystemResetWarning,0829.1,5.00,000.00,029.6,029.1,000.0,037.8,031.5,037.4,-000.3,0013.11,0016.31,0012.29
2024-06-10 17:25:00,SystemResetWarning,0829.1,5.00,000.00,029.7,029.2,000.0,037.9,031.6,037.1,-000.1,0013.04,0016.38,0012.20
2024-06-10 17:26:00,SystemResetWarning,0829.1,5.00,000.00,029.8,029.3,000.0,037.9,031.6,036.9,0000.2,0012.91,0017.01,0012.10
2024-06-10 17:27:00,SystemResetWarning,0829.1,5.00,000.00,029.8,029.4,000.0,037.9,031.7,036.7,0000.6,0012.74,0016.92,0011.96
2024-06-10 17:28:00,SystemResetWarning,0829.0,5.00,000.00,029.9,029.4,000.0,038.0,031.7,036.8,0000.5,0012.62,0017.50,0011.85
2024-06-10 17:29:00,SystemResetWarning,0829.0,4.99,000.00,029.7,027.9,000.0,038.1,031.0,037.4,0000.1,0012.52,0017.60,0011.75
2024-06-10 17:30:00,SystemResetWarning,0828.9,4.99,000.00,029.4,026.4,000.0,038.1,030.2,038.0,0000.1,0012.41,0017.50,0011.65
2024-06-10 17:31:00,SystemResetWarning,0828.9,5.02,000.00,029.1,026.3,000.0,038.0,030.1,038.7,0000.1,0012.32,0018.28,0011.55
2024-06-10 17:32:00,SystemResetWarning,0828.9,5.01,000.00,029.1,026.6,000.0,037.9,030.2,038.4,0000.8,0012.29,0019.74,0011.48
2024-06-10 17:33:00,SystemResetWarning,0828.9,4.99,000.00,029.1,027.0,000.0,037.8,030.5,039.0,0000.9,0012.20,0020.21,0011.41
2024-06-10 17:34:00,SystemResetWarning,0828.9,5.01,000.00,029.1,027.5,000.0,037.7,030.7,039.5,0001.4,0012.14,0020.19,0011.33
2024-06-10 17:35:00,SystemResetWarning,0828.8,5.00,000.00,029.2,027.8,000.0,037.7,030.8,038.3,0001.8,0012.08,0020.16,0011.26
2024-06-10 17:36:00,SystemResetWarning,0828.8,5.00,000.00,029.2,028.1,000.0,037.7,031.0,038.4,0001.7,0012.08,0020.55,0011.25
2024-06-10 17:37:00,SystemResetWarning,0828.8,4.99,000.00,029.3,028.4,000.0,037.7,031.1,038.1,0001.7,0012.12,0020.31,0011.27
2024-06-10 17:38:00,SystemResetWarning,0828.8,5.00,000.00,029.4,028.6,000.0,037.7,031.2,037.7,0001.2,0012.12,0020.06,0011.27
2024-06-10 17:39:00,SystemResetWarning,0828.7,5.00,000.00,029.4,028.8,000.0,037.7,031.3,038.1,0001.2,0012.10,0019.43,0011.25
2024-06-10 17:40:00,SystemResetWarning,0828.8,5.00,000.00,029.5,028.9,000.0,037.7,031.4,037.7,0001.5,0012.07,0019.19,0011.21
2024-06-10 17:41:00,SystemResetWarning,0828.8,5.00,000.00,029.6,029.1,000.0,037.8,031.5,037.3,0001.3,0012.08,0019.49,0011.17
2024-06-10 17:42:00,SystemResetWarning,0828.8,4.99,000.00,029.6,029.2,000.0,037.8,031.5,037.1,0001.5,0012.00,0018.88,0011.12
2024-06-10 17:43:00,SystemResetWarning,0828.8,5.00,000.00,029.7,029.3,000.0,037.8,031.6,037.0,0001.1,0011.95,0017.50,0011.10
2024-06-10 17:44:00,SystemResetWarning,0828.8,5.00,000.00,029.8,029.3,000.0,037.9,031.6,036.7,0001.0,0011.96,0017.26,0011.08
2024-06-10 17:45:00,SystemResetWarning,0828.7,5.00,000.00,029.6,027.8,000.0,038.0,030.9,037.1,0000.7,0011.94,0018.02,0011.09
2024-06-10 17:46:00,SystemResetWarning,0828.7,5.01,000.00,029.3,026.3,000.0,038.0,030.1,037.8,0000.4,0011.93,0018.34,0011.09
2024-06-10 17:47:00,SystemResetWarning,0828.7,5.02,000.00,029.1,026.2,000.0,038.0,030.0,038.2,0000.4,0011.85,0018.77,0011.02
2024-06-10 17:48:00,SystemResetWarning,0828.7,4.99,000.00,029.0,026.5,000.0,037.8,030.2,038.5,0000.1,0011.79,0018.53,0010.94
2024-06-10 17:49:00,SystemResetWarning,0828.7,5.00,000.00,029.0,027.0,000.0,037.7,030.4,038.3,0000.3,0011.72,0018.45,0010.89
2024-06-10 17:50:00,SystemResetWarning,0828.7,5.01,000.00,029.0,027.4,000.0,037.7,030.6,038.7,0000.3,0011.65,0018.40,0010.85
2024-06-10 17:51:00,SystemResetWarning,0828.7,5.01,000.00,029.1,027.8,000.0,037.6,030.8,038.3,0000.2,0011.60,0018.26,0010.80
2024-06-10 17:52:00,SystemResetWarning,0828.7,5.00,000.00,029.2,028.1,000.0,037.6,030.9,038.2,0000.6,0011.58,0017.97,0010.79
2024-06-10 17:53:00,SystemResetWarning,0828.7,5.00,000.00,029.2,028.3,000.0,037.6,031.0,038.3,0000.5,0011.54,0017.86,0010.76
2024-06-10 17:54:00,SystemResetWarning,0828.7,5.00,000.00,029.3,028.6,000.0,037.6,031.1,038.1,0000.6,0011.43,0018.05,0010.68
2024-06-10 17:55:00,SystemResetWarning,0828.7,4.99,000.00,029.4,028.8,000.0,037.6,031.3,038.0,0000.4,0011.37,0017.96,0010.63
2024-06-10 17:56:00,SystemResetWarning,0828.6,5.00,000.00,029.4,028.9,000.0,037.7,031.3,037.2,0000.7,0011.29,0017.04,0010.57
2024-06-10 17:57:00,SystemResetWarning,0828.7,5.00,000.00,029.5,029.1,000.0,037.7,031.4,037.7,0000.7,0011.20,0016.56,0010.52
2024-06-10 17:58:00,SystemResetWarning,0828.6,5.00,000.00,029.6,029.2,000.0,037.7,031.5,037.3,0000.5,0011.12,0015.59,0010.44
2024-06-10 17:59:00,SystemResetWarning,0828.6,5.00,000.00,029.7,029.3,000.0,037.8,031.6,035.8,0000.7,0011.00,0015.26,0010.37
